CFG1122 EGLL-EDDF

Flight info

Callsign CFG1122
Flight time 0h 58m
Altitude 35000
Route DET L6 DVR UL9 KONAN UL607 SPI T180 NIVNU T847 IMCOM IMCOM1D
Aircraft A321/M-SDE3FGHIRWY/LB1

Departure

Time 2026-05-05 02:54
Airport London Heathrow Airport (EGLL)

Arrival

Time 2026-05-05 03:52
Airport Frankfurt Main Airport (EDDF)
Time Latitude Longitude Altitude Speed Heading
2026-05-05 02:30 51.47134 -0.48612 86 ft 0 kts 269°
2026-05-05 02:44 51.47134 -0.48604 91 ft 0 kts 269°
2026-05-05 02:45 51.47134 -0.48585 90 ft 4 kts 269°
2026-05-05 02:45 51.47134 -0.48542 90 ft 4 kts 269°
2026-05-05 02:46 51.47135 -0.48508 90 ft 4 kts 256°
2026-05-05 02:46 51.47146 -0.48476 90 ft 4 kts 199°
2026-05-05 02:46 51.47170 -0.48472 89 ft 4 kts 179°
2026-05-05 02:46 51.47177 -0.48472 88 ft 0 kts 179°
2026-05-05 02:49 51.47176 -0.48472 88 ft 1 kts 179°
2026-05-05 02:50 51.47134 -0.48472 91 ft 11 kts 179°
2026-05-05 02:50 51.47025 -0.48471 87 ft 21 kts 179°
2026-05-05 02:50 51.46905 -0.48469 89 ft 11 kts 179°
2026-05-05 02:50 51.46834 -0.48468 86 ft 1 kts 179°
2026-05-05 02:51 51.46796 -0.48468 86 ft 10 kts 179°
2026-05-05 02:51 51.46700 -0.48466 86 ft 18 kts 179°
2026-05-05 02:51 51.46551 -0.48464 88 ft 13 kts 179°
2026-05-05 02:51 51.46520 -0.48463 90 ft 8 kts 179°
2026-05-05 02:52 51.46477 -0.48405 87 ft 11 kts 76°
2026-05-05 02:52 51.46480 -0.48373 88 ft 0 kts 81°
2026-05-05 02:52 51.46480 -0.48361 87 ft 3 kts 88°
2026-05-05 02:52 51.46481 -0.48328 87 ft 2 kts 88°
2026-05-05 02:53 51.46485 -0.47985 90 ft 71 kts 89°
2026-05-05 02:53 51.46491 -0.46768 90 ft 145 kts 90°
2026-05-05 02:53 51.46498 -0.44838 103 ft 197 kts 88°
2026-05-05 02:53 51.46529 -0.42547 637 ft 209 kts 89°
2026-05-05 02:54 51.46104 -0.40325 1519 ft 219 kts 119°
2026-05-05 02:54 51.45241 -0.38134 2146 ft 245 kts 121°
2026-05-05 02:54 51.44294 -0.35766 2812 ft 258 kts 118°
2026-05-05 02:54 51.43544 -0.33123 3461 ft 262 kts 104°
2026-05-05 02:55 51.43058 -0.30278 4171 ft 267 kts 102°
2026-05-05 02:55 51.42612 -0.27361 4893 ft 271 kts 101°
2026-05-05 02:55 51.42196 -0.24397 5559 ft 276 kts 100°
2026-05-05 02:55 51.41788 -0.21360 6283 ft 280 kts 101°
2026-05-05 02:56 51.41384 -0.18316 6929 ft 284 kts 101°
2026-05-05 02:56 51.40969 -0.15208 7630 ft 286 kts 101°
2026-05-05 02:56 51.40547 -0.12077 8349 ft 288 kts 102°
2026-05-05 02:56 51.40120 -0.08931 9052 ft 291 kts 102°
2026-05-05 02:57 51.39682 -0.05755 9753 ft 293 kts 102°
2026-05-05 02:57 51.39235 -0.02539 10255 ft 303 kts 103°
2026-05-05 02:57 51.38759 0.00871 10413 ft 324 kts 103°
2026-05-05 02:57 51.38247 0.04509 10528 ft 344 kts 103°
2026-05-05 02:58 51.37707 0.08338 10782 ft 359 kts 103°
2026-05-05 02:58 51.37150 0.12265 11335 ft 363 kts 103°
2026-05-05 02:58 51.36591 0.16233 11976 ft 365 kts 103°
2026-05-05 02:58 51.36035 0.20205 12620 ft 367 kts 103°
2026-05-05 02:59 51.35476 0.24200 13290 ft 369 kts 103°
2026-05-05 02:59 51.34911 0.28210 13920 ft 371 kts 103°
2026-05-05 02:59 51.34342 0.32238 14479 ft 372 kts 103°
2026-05-05 02:59 51.33766 0.36289 15034 ft 374 kts 103°
2026-05-05 03:00 51.33182 0.40360 15572 ft 377 kts 103°
2026-05-05 03:00 51.32590 0.44473 16051 ft 381 kts 104°
2026-05-05 03:00 51.31995 0.48617 16550 ft 384 kts 104°
2026-05-05 03:00 51.31394 0.52796 17055 ft 387 kts 104°
2026-05-05 03:01 51.30789 0.57011 17555 ft 390 kts 104°
2026-05-05 03:01 51.30167 0.61244 18033 ft 393 kts 105°
2026-05-05 03:01 51.29458 0.65483 18481 ft 396 kts 107°
2026-05-05 03:01 51.28684 0.69722 18899 ft 398 kts 108°
2026-05-05 03:02 51.27881 0.73913 19314 ft 400 kts 108°
2026-05-05 03:02 51.27324 0.76783 19603 ft 401 kts 108°
2026-05-05 03:02 51.26503 0.81062 20025 ft 404 kts 108°
2026-05-05 03:03 51.24004 0.94488 21312 ft 410 kts 108°
2026-05-05 03:03 51.23198 0.98878 21686 ft 414 kts 108°
2026-05-05 03:03 51.22391 1.03247 22060 ft 416 kts 108°
2026-05-05 03:04 51.21834 1.06241 22329 ft 418 kts 108°
2026-05-05 03:04 51.20729 1.12148 22863 ft 421 kts 108°
2026-05-05 03:04 51.20446 1.13664 22999 ft 422 kts 108°
2026-05-05 03:04 51.19052 1.21152 23634 ft 426 kts 108°
2026-05-05 03:05 51.18202 1.25685 23959 ft 428 kts 109°
2026-05-05 03:05 51.17340 1.30236 24279 ft 430 kts 109°
2026-05-05 03:05 51.16519 1.34831 24582 ft 433 kts 104°
2026-05-05 03:05 51.16081 1.39605 24885 ft 438 kts 96°
2026-05-05 03:06 51.15856 1.44459 25177 ft 440 kts 96°
2026-05-05 03:06 51.15625 1.49340 25464 ft 443 kts 96°
2026-05-05 03:06 51.15388 1.54248 25759 ft 445 kts 97°
2026-05-05 03:06 51.15147 1.59182 26052 ft 448 kts 97°
2026-05-05 03:07 51.14899 1.64134 26342 ft 450 kts 97°
2026-05-05 03:07 51.14653 1.69118 26631 ft 452 kts 97°
2026-05-05 03:07 51.14403 1.74122 26910 ft 454 kts 97°
2026-05-05 03:07 51.14146 1.79154 27183 ft 457 kts 97°
2026-05-05 03:08 51.13888 1.84202 27451 ft 459 kts 97°
2026-05-05 03:08 51.13627 1.89282 27734 ft 461 kts 97°
2026-05-05 03:08 51.13364 1.94380 27983 ft 463 kts 97°
2026-05-05 03:08 51.13098 1.99500 28248 ft 465 kts 97°
2026-05-05 03:09 51.12828 2.04650 28519 ft 467 kts 97°
2026-05-05 03:09 51.12556 2.09815 28777 ft 470 kts 97°
2026-05-05 03:09 51.12280 2.14926 29073 ft 470 kts 97°
2026-05-05 03:09 51.11999 2.20106 29440 ft 470 kts 97°
2026-05-05 03:10 51.11723 2.25283 29794 ft 469 kts 97°
2026-05-05 03:10 51.11448 2.30449 30118 ft 469 kts 98°
2026-05-05 03:10 51.11166 2.35623 30417 ft 468 kts 98°
2026-05-05 03:10 51.10878 2.40791 30683 ft 469 kts 98°
2026-05-05 03:11 51.10587 2.45964 30936 ft 470 kts 98°
2026-05-05 03:11 51.10294 2.51147 31206 ft 470 kts 98°
2026-05-05 03:11 51.09997 2.56335 31499 ft 470 kts 98°
2026-05-05 03:11 51.09697 2.61517 31798 ft 470 kts 98°
2026-05-05 03:12 51.09185 2.66637 32081 ft 466 kts 107°
2026-05-05 03:12 51.08313 2.71589 32371 ft 465 kts 109°
2026-05-05 03:12 51.07414 2.76528 32667 ft 465 kts 109°
2026-05-05 03:12 51.06520 2.81464 32980 ft 465 kts 109°
2026-05-05 03:13 51.05626 2.86401 33258 ft 465 kts 109°
2026-05-05 03:13 51.04731 2.91334 33531 ft 465 kts 109°
2026-05-05 03:13 51.03830 2.96270 33823 ft 465 kts 109°
2026-05-05 03:13 51.02940 3.01121 34078 ft 464 kts 109°
2026-05-05 03:14 51.02025 3.06121 34310 ft 464 kts 109°
2026-05-05 03:14 51.01134 3.10978 34541 ft 463 kts 109°
2026-05-05 03:14 51.00227 3.15885 34759 ft 463 kts 109°
2026-05-05 03:14 50.99315 3.20788 34918 ft 463 kts 109°
2026-05-05 03:15 50.98404 3.25675 34942 ft 461 kts 109°
2026-05-05 03:15 50.96597 3.35433 34945 ft 461 kts 109°
2026-05-05 03:16 50.94778 3.45185 34934 ft 461 kts 109°
2026-05-05 03:16 50.92935 3.54931 34935 ft 461 kts 109°
2026-05-05 03:17 50.91090 3.64660 34932 ft 461 kts 110°
2026-05-05 03:17 50.89227 3.74384 34938 ft 461 kts 110°
2026-05-05 03:18 50.87358 3.84046 34926 ft 462 kts 110°
2026-05-05 03:18 50.85454 3.93775 34929 ft 463 kts 110°
2026-05-05 03:19 50.82586 4.08391 34940 ft 463 kts 110°
2026-05-05 03:19 50.80677 4.18136 34945 ft 464 kts 110°
2026-05-05 03:20 50.78757 4.27868 34946 ft 463 kts 110°
2026-05-05 03:20 50.76824 4.37580 34955 ft 463 kts 111°
2026-05-05 03:21 50.74891 4.47217 34959 ft 463 kts 111°
2026-05-05 03:21 50.72940 4.56908 34959 ft 462 kts 111°
2026-05-05 03:22 50.71016 4.66591 34954 ft 462 kts 110°
2026-05-05 03:22 50.69146 4.76310 34934 ft 463 kts 110°
2026-05-05 03:23 50.67275 4.86029 34924 ft 463 kts 110°
2026-05-05 03:23 50.65368 4.95726 34926 ft 463 kts 111°
2026-05-05 03:24 50.63389 5.05384 34920 ft 463 kts 111°
2026-05-05 03:24 50.61374 5.15033 34911 ft 463 kts 111°
2026-05-05 03:25 50.59372 5.24673 34912 ft 463 kts 111°
2026-05-05 03:25 50.57381 5.34251 34916 ft 463 kts 111°
2026-05-05 03:26 50.55360 5.43904 34918 ft 463 kts 112°
2026-05-05 03:26 50.53333 5.53524 34921 ft 463 kts 112°
2026-05-05 03:27 50.51304 5.63139 34668 ft 462 kts 111°
2026-05-05 03:27 50.50336 5.67962 34038 ft 464 kts 111°
2026-05-05 03:27 50.49419 5.72823 33326 ft 465 kts 110°
2026-05-05 03:28 50.48530 5.77720 32569 ft 467 kts 110°
2026-05-05 03:28 50.47646 5.82642 31804 ft 469 kts 110°
2026-05-05 03:28 50.46753 5.87570 31043 ft 471 kts 110°
2026-05-05 03:28 50.45852 5.92464 30395 ft 471 kts 110°
2026-05-05 03:29 50.44933 5.97370 29856 ft 467 kts 110°
2026-05-05 03:29 50.44012 6.02231 29241 ft 463 kts 110°
2026-05-05 03:29 50.43087 6.07064 28622 ft 460 kts 110°
2026-05-05 03:29 50.42168 6.11845 28043 ft 457 kts 110°
2026-05-05 03:30 50.41256 6.16593 27487 ft 453 kts 110°
2026-05-05 03:30 50.40352 6.21310 26945 ft 449 kts 110°
2026-05-05 03:30 50.39758 6.24406 26578 ft 447 kts 110°
2026-05-05 03:30 50.38863 6.29056 26059 ft 444 kts 110°
2026-05-05 03:31 50.37674 6.35213 25380 ft 439 kts 110°
2026-05-05 03:31 50.36806 6.39771 24879 ft 436 kts 107°
2026-05-05 03:31 50.36237 6.44428 24382 ft 435 kts 98°
2026-05-05 03:31 50.35959 6.49136 23995 ft 432 kts 97°
2026-05-05 03:32 50.35681 6.53819 23868 ft 431 kts 97°
2026-05-05 03:32 50.35391 6.58499 23895 ft 432 kts 98°
2026-05-05 03:32 50.35090 6.63178 23668 ft 431 kts 98°
2026-05-05 03:32 50.34782 6.67842 23433 ft 430 kts 98°
2026-05-05 03:33 50.34473 6.72485 23159 ft 428 kts 98°
2026-05-05 03:33 50.34169 6.77115 22886 ft 426 kts 98°
2026-05-05 03:33 50.33872 6.81726 22623 ft 425 kts 98°
2026-05-05 03:33 50.33567 6.84732 22443 ft 422 kts 105°
2026-05-05 03:34 50.32734 6.89088 22048 ft 414 kts 114°
2026-05-05 03:34 50.31554 6.93159 21499 ft 410 kts 118°
2026-05-05 03:34 50.30751 6.95832 21159 ft 407 kts 118°
2026-05-05 03:35 50.27591 7.06391 19809 ft 399 kts 118°
2026-05-05 03:35 50.26422 7.10306 19313 ft 396 kts 118°
2026-05-05 03:35 50.25260 7.14186 18827 ft 393 kts 118°
2026-05-05 03:35 50.24102 7.18045 18355 ft 391 kts 118°
2026-05-05 03:36 50.22961 7.21847 17506 ft 383 kts 118°
2026-05-05 03:36 50.21835 7.25593 16471 ft 378 kts 118°
2026-05-05 03:36 50.21101 7.28038 15826 ft 374 kts 118°
2026-05-05 03:36 50.20005 7.31681 14892 ft 368 kts 118°
2026-05-05 03:37 50.18973 7.35307 13962 ft 363 kts 115°
2026-05-05 03:37 50.18060 7.38940 13015 ft 357 kts 112°
2026-05-05 03:37 50.17173 7.42519 12037 ft 349 kts 120°
2026-05-05 03:37 50.15828 7.45574 11119 ft 338 kts 133°
2026-05-05 03:38 50.14299 7.48380 10329 ft 342 kts 134°
2026-05-05 03:38 50.12762 7.51177 10045 ft 337 kts 134°
2026-05-05 03:38 50.11243 7.53946 9880 ft 332 kts 134°
2026-05-05 03:38 50.09772 7.56630 9738 ft 319 kts 134°
2026-05-05 03:39 50.08356 7.59209 9605 ft 307 kts 134°
2026-05-05 03:39 50.06992 7.61693 9467 ft 296 kts 134°
2026-05-05 03:39 50.05674 7.64086 9257 ft 288 kts 134°
2026-05-05 03:39 50.04375 7.66437 8910 ft 285 kts 134°
2026-05-05 03:40 50.03082 7.68771 8539 ft 284 kts 134°
2026-05-05 03:40 50.01796 7.71084 8174 ft 282 kts 136°
2026-05-05 03:40 50.00288 7.72934 7805 ft 274 kts 156°
2026-05-05 03:40 49.98498 7.73807 7412 ft 268 kts 176°
2026-05-05 03:41 49.96657 7.73666 7027 ft 264 kts 195°
2026-05-05 03:41 49.94980 7.72579 6640 ft 262 kts 214°
2026-05-05 03:41 49.93648 7.70682 6238 ft 261 kts 233°
2026-05-05 03:41 49.92574 7.68415 5787 ft 261 kts 225°
2026-05-05 03:42 49.91015 7.67094 5396 ft 259 kts 191°
2026-05-05 03:42 49.89220 7.67123 4991 ft 260 kts 167°
2026-05-05 03:42 49.87571 7.68254 4594 ft 262 kts 145°
2026-05-05 03:42 49.86339 7.70304 4207 ft 263 kts 121°
2026-05-05 03:43 49.85784 7.72985 4000 ft 264 kts 95°
2026-05-05 03:43 49.85949 7.75839 4010 ft 268 kts 82°
2026-05-05 03:43 49.86259 7.78693 4009 ft 269 kts 81°
2026-05-05 03:43 49.86576 7.81551 4011 ft 269 kts 81°
2026-05-05 03:44 49.86890 7.84408 4007 ft 269 kts 82°
2026-05-05 03:44 49.87275 7.87252 4006 ft 270 kts 73°
2026-05-05 03:44 49.87919 7.89945 4008 ft 270 kts 70°
2026-05-05 03:44 49.88642 7.92890 4008 ft 270 kts 70°
2026-05-05 03:45 49.89307 7.95611 4009 ft 270 kts 70°
2026-05-05 03:45 49.89961 7.98302 4008 ft 270 kts 70°
2026-05-05 03:45 49.90584 8.01050 4008 ft 270 kts 72°
2026-05-05 03:45 49.91213 8.03793 4005 ft 270 kts 71°
2026-05-05 03:46 49.91878 8.06518 4004 ft 270 kts 70°
2026-05-05 03:46 49.92550 8.09245 4021 ft 271 kts 70°
2026-05-05 03:46 49.93219 8.11978 4022 ft 271 kts 70°
2026-05-05 03:46 49.93885 8.14708 4024 ft 270 kts 71°
2026-05-05 03:47 49.94534 8.17366 4019 ft 255 kts 71°
2026-05-05 03:47 49.95150 8.19892 4031 ft 245 kts 71°
2026-05-05 03:47 49.95730 8.22277 4027 ft 229 kts 70°
2026-05-05 03:47 49.96286 8.24565 4027 ft 225 kts 71°
2026-05-05 03:48 49.96835 8.26826 3910 ft 219 kts 71°
2026-05-05 03:48 49.97357 8.28976 3644 ft 208 kts 70°
2026-05-05 03:48 49.97849 8.31007 3394 ft 199 kts 70°
2026-05-05 03:48 49.98323 8.32966 3131 ft 187 kts 70°
2026-05-05 03:49 49.98767 8.34800 2888 ft 176 kts 70°
2026-05-05 03:49 49.99189 8.36548 2686 ft 171 kts 70°
2026-05-05 03:49 49.99603 8.38259 2448 ft 168 kts 70°
2026-05-05 03:49 50.00005 8.39929 2222 ft 160 kts 70°
2026-05-05 03:50 50.00389 8.41517 2009 ft 154 kts 70°
2026-05-05 03:50 50.00762 8.43069 1801 ft 152 kts 70°
2026-05-05 03:50 50.01131 8.44599 1577 ft 150 kts 69°
2026-05-05 03:50 50.01373 8.45606 1441 ft 150 kts 69°
2026-05-05 03:51 50.01857 8.47615 1166 ft 149 kts 69°
2026-05-05 03:51 50.02219 8.49125 960 ft 148 kts 69°
2026-05-05 03:51 50.02577 8.50620 749 ft 147 kts 68°
2026-05-05 03:51 50.02933 8.52104 566 ft 146 kts 68°
2026-05-05 03:52 50.03291 8.53571 403 ft 144 kts 67°
2026-05-05 03:52 50.03638 8.54989 353 ft 128 kts 71°
2026-05-05 03:52 50.03785 8.55649 354 ft 27 kts 70°
2026-05-05 03:52 50.03879 8.55880 360 ft 24 kts 45°
2026-05-05 03:53 50.03933 8.55956 358 ft 1 kts 41°
2026-05-05 03:53 50.03943 8.55969 352 ft 3 kts 41°
2026-05-05 03:53 50.03957 8.55988 355 ft 3 kts 41°
2026-05-05 03:53 50.03970 8.56006 351 ft 2 kts 41°
2026-05-05 03:54 50.03978 8.56016 354 ft 1 kts 41°
2026-05-05 03:54 50.03979 8.56017 354 ft 0 kts 41°
2026-05-05 03:54 50.03982 8.56022 356 ft 2 kts 41°
2026-05-05 03:54 50.03998 8.56043 349 ft 4 kts 41°
2026-05-05 03:55 50.04024 8.56077 360 ft 6 kts 39°
2026-05-05 03:55 50.04062 8.56120 355 ft 8 kts 35°
2026-05-05 03:55 50.04103 8.56184 359 ft 10 kts 60°
2026-05-05 03:55 50.04153 8.56256 354 ft 11 kts
2026-05-05 03:56 50.04234 8.56210 355 ft 14 kts 339°
2026-05-05 03:56 50.04278 8.56171 378 ft 8 kts 304°
2026-05-05 03:56 50.04305 8.56085 361 ft 10 kts 311°
2026-05-05 03:56 50.04375 8.56034 359 ft 13 kts 343°
2026-05-05 03:57 50.04449 8.56103 358 ft 16 kts 66°
2026-05-05 03:57 50.04469 8.56187 358 ft 1 kts 70°
2026-05-05 03:57 50.04474 8.56209 362 ft 3 kts 70°
2026-05-05 03:57 50.04478 8.56250 357 ft 2 kts 116°
2026-05-05 03:58 50.04457 8.56257 362 ft 4 kts 165°
2026-05-05 03:58 50.04423 8.56272 361 ft 2 kts 163°
2026-05-05 03:58 50.04418 8.56274 360 ft 0 kts 162°